Regional Weather Roundup
Issued by NWS

Home | Current Version | Previous Version | Graphics & Text | Print | Product List | Glossary On
Versions: 1 2 3 4 5 6 7 8 9 10 11 12 13 14 15 16 17 18 19 20 21 22 23 24 25 26 27 28 29 30 31 32 33 34 35 36 37 38 39 40 41 42 43 44 45 46 47 48 49 50
000
ASUS45 KBOU 011707
RWRCO

WEATHER ROUNDUP FOR COLORADO
NATIONAL WEATHER SERVICE DENVER/BOULDER CO
1100 AM MDT MON JUN 01 2015

NOTE: "FAIR" INDICATES FEW OR NO CLOUDS BELOW 12000 FEET WITH NO
SIGNIFICANT WEATHER AND/OR OBSTRUCTIONS TO VISIBILITY.

COZ001>005-013-030-031-011800-
...NORTHWEST COLORADO...

CITY           SKY/WX    TMP DP  RH WIND       PRES   REMARKS
CRAIG          SUNNY     77  49  37 E10       30.13F
HAYDEN         SUNNY     70  45  40 E8        30.16F
MEEKER         SUNNY     76  45  33 CALM      30.14F
MOUNT WERNER   NOT AVBL
STEAMBOAT SPGS SUNNY     67  47  47 CALM      30.19F
WALDEN         MOSUNNY   70  34  26 SW14      30.27F
$$

COZ006>008-011-011800-
...WEST CENTRAL VALLEYS...

CITY           SKY/WX    TMP DP  RH WIND       PRES   REMARKS
GRAND JUNCTION SUNNY     81  44  27 SE16      30.04F
MONTROSE       SUNNY     81  40  23 NE8       30.15F
EAGLE          MOSUNNY   75  46  35 VRB6      30.23F
RIFLE          SUNNY     73  47  39 VRB3      30.11F
DELTA          SUNNY     82  38  20 CALM      30.11F
NUCLA          MOSUNNY   81  32  17 W10G17    30.19F
$$

COZ017>023-064>068-011800-
...SOUTHWEST COLORADO...

CITY           SKY/WX    TMP DP  RH WIND       PRES   REMARKS
DURANGO        MOSUNNY   71  43  36 VRB5      30.26F
CORTEZ         SUNNY     81  40  23 S8G21     30.18F
PAGOSA SPRINGS MOSUNNY   69  35  28 E7        30.35S
TELLURIDE      CLOUDY    64  31  28 S7        30.42S
WOLF CREEK PAS NOT AVBL
$$

COZ009-010-012-014-032>034-037-058>063-011800-
...CENTRAL COLORADO...

CITY           SKY/WX    TMP DP  RH WIND       PRES   REMARKS
ASPEN          MOSUNNY   66  38  35 CALM      30.28F
BUENA VISTA    MOSUNNY   69  35  28 E6        30.30F
COPPER MTN     NOT AVBL
BERTHOUD PASS  FAIR      43  36  75 NW10      30.60S
COTTONWOOD PAS NOT AVBL
GUNNISON       MOSUNNY   63  41  45 N5        30.35F
KREMMLING      MOSUNNY   63  39  42 SE5       30.28F
LEADVILLE      PTSUNNY   61  28  28 W13G18    30.41S
MONARCH PASS   MOSUNNY   46  32  57 SW18G28   30.69S
SALIDA         MOSUNNY   74  34  22 W15       30.35S
SUNLIGHT       MOSUNNY   59  34  38 CALM      30.50S
WILKERSON PASS SUNNY     59  32  36 SW3       30.55S
$$

COZ069>075-011800-
...SAN LUIS VALLEY/SANGRE DE CRISTO MOUNTAINS...

CITY           SKY/WX    TMP DP  RH WIND       PRES   REMARKS
ALAMOSA        MOSUNNY   73  39  29 N9G17     30.32F
LA VETA PASS   SUNNY    N/A N/A N/A MISG      30.48R
SAGUACHE       MOSUNNY   64  41  42 SE9       30.34F
$$

COZ035-036-038>040-011800-
...NORTHERN COLORADO FRONT RANGE...

CITY           SKY/WX    TMP DP  RH WIND       PRES   REMARKS
DENVER INTL AP MOSUNNY   79  46  31 NE5       30.10S
DMNS CITY PARK   N/A     83  41  22 E3        30.08F
AURORA         MOSUNNY   78  46  31 N5        30.12S
FRONT RANGE AP MOSUNNY   81  45  28 CALM      30.11F
ERIE MUNI ARPT MOSUNNY   76  50  40 NE6       30.09S
BOULDER MUN AP MOSUNNY   72  52  49 CALM      30.09F
CENTENNIAL     MOSUNNY   79  38  22 VRB5      30.12F
BROOMFIELD     MOSUNNY   77  48  36 NE6       30.11F
FORT COLLINS   MOSUNNY   73  55  53 SE6       30.08F
LONGMONT       MOSUNNY   78  49  36 CALM      30.10S
$$

COZ041-046-047-076>085-087-088-011800-
...PIKES PEAK/PALMER DIVIDE AND SOUTHERN FOOTHILLS...

CITY           SKY/WX    TMP DP  RH WIND       PRES   REMARKS
COLO. SPRINGS  MOSUNNY   76  46  34 VRB7      30.17S
A. F. ACADEMY  NOT AVBL
ELLICOTT       SUNNY    N/A N/A N/A SE6       30.16S
FALCON         SUNNY     75  39  26 SE7       30.22S
FORT CARSON    NOT AVBL
LIMON          SUNNY     76  54  46 SE8       30.12S
MONUMENT HILL  SUNNY     73  36  25 CALM      30.23S
TRINIDAD       SUNNY     76  49  38 SE8       30.16S
$$

COZ042>045-048>051-090-091-011800-
...NORTHEAST COLORADO...

CITY           SKY/WX    TMP DP  RH WIND       PRES   REMARKS
GREELEY ARPT   SUNNY     75  55  50 CALM      30.08F
AKRON          SUNNY     78  53  41 SE12      30.07S
BURLINGTON     SUNNY     81  50  33 VRB6      30.06F
WRAY           SUNNY     77  59  54 E6        30.04F
STERLING       SUNNY     77  59  53 SW3       30.02F
HOLYOKE        NOT AVBL
FORT MORGAN    SUNNY     76 -17   2 CALM      30.07S
$$

COZ086-089-092>099-011800-
...SOUTHEAST COLORADO...

CITY           SKY/WX    TMP DP  RH WIND       PRES   REMARKS
PUEBLO         SUNNY     76  50  40 SW7       30.08F
LA JUNTA       SUNNY     78  54  43 VRB5      30.06F
LAMAR          SUNNY     79  58  48 VRB3      30.03S
SPRINGFIELD      N/A     82  53  36 S8        30.07S
$$



USA.gov is the U.S. government's official web portal to all federal, state and local government web resources and services.